GW7140 Weather Reports


time (UTC)temp
C
wind
direction
speed
KPH
gust
KPH
rain 1hr
cm
rain 24hr
cm
rain mn
cm
humidity
%
barometer
mb
20260508005630 18 82 0.0 0.0 0.00 0.00 1.73 97
20260508005332 18 82 0.0 0.0 0.00 0.00 1.73 97
20260508004730 18 81 0.0 0.0 0.00 0.00 1.73 97
20260508004434 18 82 0.0 1.6 0.00 0.00 1.73 97
20260508004133 18 80 0.0 0.0 0.00 0.00 1.73 97
20260508003826 18 79 1.6 3.2 0.00 0.00 1.73 97
20260508003529 18 98 4.8 6.4 0.00 0.00 1.70 97
20260508003226 18 112 1.6 1.6 0.00 0.00 1.68 97
20260508002928 18 111 1.6 1.6 0.00 0.00 1.65 97
20260508002632 18 128 0.0 1.6 0.00 0.00 1.63 97
20260508002331 18 128 0.0 0.0 0.00 0.00 1.57 97
20260508002032 18 128 0.0 0.0 0.00 0.00 1.52 97
20260508001726 18 128 0.0 0.0 0.00 0.00 1.45 97
20260508001428 18 128 0.0 0.0 0.00 0.00 1.37 97
20260508001132 18 128 0.0 0.0 0.00 0.00 1.30 97
20260508000829 18 128 0.0 0.0 0.00 0.00 1.27 97
20260508000235 18 128 0.0 0.0 0.00 0.00 1.27 97
20260507235926 18 128 0.0 1.6 0.00 0.00 1.24 97
20260507235632 18 120 0.0 3.2 0.00 0.00 1.22 97
20260507235330 18 243 1.6 1.6 0.00 0.00 1.14 97
20260507235031 18 242 0.0 0.0 0.00 0.00 1.07 97
20260507234728 18 242 0.0 0.0 0.00 0.00 0.99 97
20260507234442 18 242 1.6 1.6 0.00 0.00 0.97 97
20260507234130 18 244 0.0 1.6 0.00 0.00 0.97 97
20260507233837 18 242 0.0 1.6 0.00 0.00 0.97 97
20260507233528 18 242 0.0 1.6 0.00 0.00 0.97 97
20260507233244 18 243 0.0 1.6 0.00 0.00 0.97 97
20260507232934 18 243 0.0 1.6 0.00 0.00 0.97 97
20260507232625 18 244 1.6 3.2 0.00 0.00 0.97 96
20260507232037 18 110 1.6 3.2 0.00 0.00 0.97 97
20260507231737 18 76 0.0 1.6 0.00 0.00 0.97 97
20260507231434 18 75 0.0 0.0 0.00 0.00 0.97 97
20260507231135 18 75 0.0 0.0 0.00 0.00 0.97 97
20260507230834 18 75 0.0 0.0 0.00 0.00 0.97 96
20260507230536 18 75 0.0 0.0 0.00 0.00 0.97 97
20260507230248 18 75 0.0 0.0 0.00 0.00 0.97 96
20260507225935 18 75 0.0 1.6 0.00 0.00 0.97 96
20260507225635 18 75 0.0 0.0 0.00 0.00 0.97 96
20260507225335 18 75 0.0 0.0 0.00 0.00 0.97 96
20260507225034 18 75 0.0 0.0 0.00 0.00 0.97 96
20260507224734 18 75 0.0 0.0 0.00 0.00 0.97 96
20260507224427 18 75 0.0 3.2 0.00 0.00 0.97 96
20260507223833 18 67 1.6 1.6 0.00 0.00 0.97 96
20260507223528 18 66 1.6 1.6 0.00 0.00 0.97 96
20260507223238 18 66 0.0 0.0 0.00 0.00 0.97 96
20260507222927 18 66 0.0 1.6 0.00 0.00 0.97 96
20260507222630 18 64 0.0 1.6 0.00 0.00 0.97 96
20260507222335 18 34 3.2 1.6 0.00 0.00 0.97 96
20260507222036 18 32 0.0 1.6 0.00 0.00 0.97 96
20260507221737 18 32 1.6 1.6 0.00 0.00 0.97 96
20260507221436 18 32 1.6 3.2 0.00 0.00 0.97 96
20260507221137 18 34 1.6 1.6 0.00 0.00 0.97 96
20260507220832 18 34 3.2 3.2 0.00 0.00 0.97 96
20260507220534 18 108 0.0 1.6 0.00 0.00 0.97 96
20260507215933 18 259 0.0 1.6 0.00 0.00 0.97 96
20260507214433 18 242 1.6 1.6 0.00 0.00 0.94 96
20260507213833 18 242 3.2 4.8 0.00 0.00 0.91 96
20260507213539 18 214 3.2 3.2 0.00 0.00 0.91 96
20260507213232 18 236 1.6 1.6 0.00 0.00 0.91 96
20260507212939 17 236 1.6 1.6 0.00 0.00 0.91 96
20260507212633 18 234 1.6 3.2 0.00 0.00 0.91 96
20260507212329 18 234 1.6 3.2 0.00 0.00 0.91 96
20260507212028 18 134 0.0 1.6 0.00 0.00 0.91 96
20260507211731 18 134 0.0 3.2 0.00 0.00 0.91 96
20260507211438 18 50 3.2 3.2 0.00 0.00 0.91 96
20260507211132 18 123 0.0 3.2 0.00 0.00 0.91 96
20260507210837 18 124 1.6 1.6 0.00 0.00 0.91 96
20260507210545 18 124 1.6 1.6 0.00 0.00 0.91 96
20260507210237 18 126 3.2 3.2 0.00 0.00 0.91 96
20260507205933 18 114 1.6 3.2 0.00 0.00 0.91 96
20260507205336 18 114 3.2 4.8 0.00 0.00 0.91 96
20260507205038 18 141 1.6 1.6 0.00 0.00 0.91 96
20260507204738 18 219 1.6 3.2 0.00 0.00 0.91 96
20260507204439 18 94 1.6 3.2 0.00 0.00 0.91 96
20260507204135 18 68 1.6 3.2 0.00 0.00 0.91 96
20260507203846 17 216 1.6 3.2 0.00 0.00 0.91 96
20260507203539 17 137 3.2 4.8 0.00 0.00 0.91 96
20260507203239 17 139 3.2 4.8 0.00 0.00 0.91 96
20260507202933 18 104 4.8 11.3 0.00 0.00 0.91 96
20260507202629 18 95 6.4 6.4 0.00 0.00 0.91 96
20260507202341 18 151 6.4 9.7 0.00 0.00 0.91 96
20260507202031 18 139 4.8 6.4 0.00 0.00 0.91 96
20260507201751 18 108 0.0 3.2 0.00 0.00 0.91 96
20260507201436 18 306 3.2 4.8 0.00 0.00 0.91 96
20260507201140 18 80 3.2 4.8 0.00 0.00 0.91 96
20260507200836 18 91 3.2 11.3 0.00 0.00 0.91 96
20260507200533 18 101 8.0 9.7 0.00 0.00 0.91 96
20260507200245 18 118 9.7 11.3 0.00 0.00 0.89 96
20260507195930 18 69 3.2 4.8 0.00 0.00 0.81 96
20260507195638 18 350 1.6 4.8 0.00 0.00 0.79 96
20260507195038 18 72 1.6 1.6 0.00 0.00 0.76 96
20260507194739 18 80 0.0 1.6 0.00 0.00 0.74 96
20260507194437 18 81 1.6 3.2 0.00 0.00 0.69 96
20260507194139 18 48 1.6 14.5 0.00 0.00 0.61 96
20260507193834 18 39 1.6 3.2 0.00 0.00 0.51 96
20260507193533 18 134 1.6 4.8 0.00 0.00 0.41 96
20260507193240 18 82 1.6 4.8 0.00 0.00 0.25 96
20260507192931 18 125 3.2 3.2 0.00 0.00 0.20 96
20260507192638 18 93 0.0 1.6 0.00 0.00 0.20 96
20260507192330 19 93 0.0 3.2 0.00 0.00 0.18 96
20260507192054 18 98 1.6 3.2 0.00 0.00 0.08 96
20260507191745 18 101 0.0 1.6 0.00 0.00 0.05 96
20260507191440 18 101 0.0 1.6 0.00 0.00 0.05 96
20260507191154 18 101 0.0 3.2 0.00 0.00 0.03 96
20260507190838 18 118 3.2 6.4 0.00 0.00 0.03 96
20260507190543 18 51 3.2 4.8 0.00 0.00 0.03 96
20260507190231 18 48 6.4 6.4 0.00 0.00 0.03 96
20260507185942 18 157 9.7 14.5 0.00 0.00 0.03 96
20260507185640 18 160 6.4 9.7 0.00 0.00 0.03 96
20260507185340 18 133 3.2 11.3 0.00 0.00 0.03 96
20260507185033 18 155 8.0 11.3 0.00 0.00 0.03 96
20260507184742 18 127 3.2 3.2 0.00 0.00 0.03 96
20260507184436 18 78 3.2 4.8 0.00 0.00 0.00 95
20260507184134 18 268 6.4 12.9 0.00 0.00 0.00 95
20260507183834 18 119 1.6 4.8 0.00 0.00 0.00 95
20260507183541 18 288 9.7 11.3 0.00 0.00 0.00 95
20260507183244 18 140 0.0 6.4 0.00 0.00 0.00 95
20260507182944 18 76 3.2 4.8 0.00 0.00 0.00 95
20260507182637 18 264 3.2 4.8 0.00 0.00 0.00 95
20260507182341 18 295 3.2 4.8 0.00 0.00 0.00 95
20260507182040 18 115 3.2 4.8 0.00 0.00 0.00 95
20260507181740 18 63 1.6 9.7 0.00 0.00 0.00 95
20260507181457 18 90 6.4 12.9 0.00 0.00 0.00 95
20260507181142 18 92 3.2 9.7 0.00 0.00 0.00 95
20260507180838 18 79 3.2 3.2 0.00 0.00 0.00 95
20260507180727 18 80 1.6 4.8 0.00 0.00 0.00 95
20260507180543 18 76 3.2 6.4 0.00 0.00 0.00 94
20260507180240 18 57 1.6 3.2 0.00 0.00 0.00 94
20260507175943 18 90 1.6 6.4 0.00 0.00 0.00 94
20260507175701 18 132 0.0 1.6 0.00 0.00 0.00 95
20260507175636 18 132 1.6 1.6 0.00 0.00 0.00 95
20260507175252 18 85 1.6 14.5 0.00 0.00 0.00 94
20260507175139 18 64 11.3 14.5 0.00 0.00 0.00 94
20260507175038 19 334 3.2 11.3 0.00 0.00 0.00 94
20260507174738 19 101 1.6 3.2 0.00 0.00 0.00 94
20260507174440 19 289 3.2 4.8 0.00 0.00 0.00 94
20260507174145 19 276 4.8 4.8 0.00 0.00 0.00 93
20260507173835 19 330 4.8 6.4 0.00 0.00 0.00 93
20260507173537 20 359 8.0 9.7 0.00 0.00 0.00 92
20260507173235 20 157 1.6 6.4 0.00 0.00 0.00 91
20260507172942 20 321 0.0 6.4 0.00 0.00 0.00 90
20260507172918 20 318 1.6 6.4 0.00 0.00 0.00 90
20260507172635 19 82 1.6 3.2 0.00 0.00 0.00 91
20260507172338 20 80 4.8 4.8 0.00 0.00 0.00 91
20260507172038 19 95 6.4 9.7 0.00 0.00 0.00 90
20260507171756 20 16 3.2 9.7 0.00 0.00 0.00 89
20260507171444 21 122 1.6 3.2 0.00 0.00 0.00 89
20260507171140 20 102 1.6 3.2 0.00 0.00 0.00 91
20260507170843 20 340 3.2 6.4 0.00 0.00 0.00 90
20260507170542 20 91 3.2 6.4 0.00 0.00 0.00 88
20260507170240 20 107 3.2 3.2 0.00 0.00 0.00 87
20260507165635 20 354 1.6 1.6 0.00 0.00 0.00 88
20260507165345 20 354 0.0 1.6 0.00 0.00 0.00 89
20260507165046 20 22 1.6 3.2 0.00 0.00 0.00 88
20260507164741 21 64 0.0 1.6 0.00 0.00 0.00 87
20260507164446 22 61 3.2 6.4 0.00 0.00 0.00 84
20260507164139 21 57 1.6 3.2 0.00 0.00 0.00 83
20260507163839 21 289 4.8 11.3 0.00 0.00 0.00 78
20260507163543 20 186 1.6 4.8 0.00 0.00 0.00 84
20260507163241 21 183 6.4 9.7 0.00 0.00 0.00 80
20260507162948 22 110 4.8 9.7 0.00 0.00 0.00 80
20260507162644 23 105 0.0 4.8 0.00 0.00 0.00 78
20260507162336 21 90 1.6 1.6 0.00 0.00 0.00 73
20260507162037 21 84 1.6 3.2 0.00 0.00 0.00 79
20260507161747 20 84 1.6 3.2 0.00 0.00 0.00 84
20260507161438 20 98 3.2 4.8 0.00 0.00 0.00 87
20260507161137 20 266 3.2 4.8 0.00 0.00 0.00 80
20260507160848 20 246 1.6 9.7 0.00 0.00 0.00 82
20260507160544 21 123 4.8 11.3 0.00 0.00 0.00 82
20260507160237 21 182 4.8 4.8 0.00 0.00 0.00 82
20260507160009 20 127 6.4 6.4 0.00 0.00 0.00 80
20260507155344 20 67 3.2 6.4 0.00 0.00 0.00 86
20260507155036 20 152 1.6 12.9 0.00 0.00 0.00 84
20260507154739 21 57 1.6 3.2 0.00 0.00 0.00 84
20260507154444 21 154 3.2 4.8 0.00 0.00 0.00 85
20260507154145 21 85 3.2 4.8 0.00 0.00 0.00 83
20260507153838 21 61 0.0 9.7 0.00 0.00 0.00 83
20260507153543 20 123 1.6 4.8 0.00 0.00 0.00 81
20260507153236 21 133 3.2 9.7 0.00 0.00 0.00 79
20260507152942 21 186 1.6 6.4 0.00 0.00 0.00 79
20260507152646 21 118 4.8 6.4 0.00 0.00 0.00 81
20260507152339 21 88 3.2 9.7 0.00 0.00 0.00 82
20260507152042 20 146 3.2 4.8 0.00 0.00 0.00 84
20260507151747 20 195 6.4 6.4 0.00 0.00 0.00 82
20260507151439 21 93 1.6 4.8 0.00 0.00 0.00 79
20260507151143 20 174 1.6 3.2 0.00 0.00 0.00 85
20260507150837 20 145 4.8 6.4 0.00 0.00 0.00 82
20260507150546 20 118 3.2 3.2 0.00 0.00 0.00 81
20260507150248 20 134 1.6 1.6 0.00 0.00 0.00 82
20260507150004 20 106 3.2 6.4 0.00 0.00 0.00 84
20260507145340 20 157 3.2 6.4 0.00 0.00 0.00 83
20260507145046 19 154 0.0 3.2 0.00 0.00 0.00 86
20260507144739 20 113 4.8 11.3 0.00 0.00 0.00 84
20260507144443 20 116 3.2 6.4 0.00 0.00 0.00 85
20260507144145 20 115 1.6 3.2 0.00 0.00 0.00 82
20260507143839 20 123 1.6 4.8 0.00 0.00 0.00 81
20260507143543 18 97 1.6 1.6 0.00 0.00 0.00 84
20260507143248 19 90 3.2 3.2 0.00 0.00 0.00 86
20260507142942 20 139 1.6 1.6 0.00 0.00 0.00 82
20260507142645 21 133 3.2 4.8 0.00 0.00 0.00 78
20260507142349 21 50 3.2 4.8 0.00 0.00 0.00 82
20260507142042 19 285 3.2 4.8 0.00 0.00 0.00 80
20260507141740 19 234 3.2 6.4 0.00 0.00 0.00 77
20260507141445 19 189 1.6 4.8 0.00 0.00 0.00 85
20260507141148 19 102 1.6 6.4 0.00 0.00 0.00 83
20260507140848 20 148 9.7 12.9 0.00 0.00 0.00 82
20260507140543 20 237 3.2 6.4 0.00 0.00 0.00 81
20260507140249 20 134 3.2 6.4 0.00 0.00 0.00 82
20260507140002 20 94 4.8 9.7 0.00 0.00 0.00 81
20260507135341 20 237 1.6 4.8 0.00 0.00 0.00 82
20260507135046 20 129 1.6 4.8 0.00 0.00 0.00 81
20260507134740 20 135 1.6 3.2 0.00 0.00 0.00 82
20260507134444 20 131 4.8 6.4 0.00 0.00 0.00 83
20260507134147 18 82 0.0 4.8 0.00 0.00 0.00 85
20260507133840 18 166 4.8 6.4 0.00 0.00 0.00 85
20260507133546 19 150 3.2 11.3 0.00 0.00 0.00 84
20260507133240 19 76 3.2 4.8 0.00 0.00 0.00 84
20260507132945 19 151 1.6 4.8 0.00 0.00 0.00 82
20260507132648 19 30 3.2 4.8 0.00 0.00 0.00 85
20260507132343 19 141 3.2 9.7 0.00 0.00 0.00 84
20260507132048 19 73 4.8 4.8 0.00 0.00 0.00 85
20260507131741 19 116 3.2 4.8 0.00 0.00 0.00 85
20260507131446 18 72 6.4 9.7 0.00 0.00 0.00 85
20260507131150 18 260 6.4 12.9 0.00 0.00 0.00 84
20260507130844 19 104 4.8 9.7 0.00 0.00 0.00 87
20260507130548 18 65 4.8 6.4 0.00 0.00 0.00 87
20260507130241 18 171 9.7 19.3 0.00 0.00 0.00 87
20260507130009 18 147 14.5 16.1 0.00 0.00 0.00 86
20260507125348 18 183 8.0 12.9 0.00 0.00 0.00 85
20260507125043 18 106 9.7 14.5 0.00 0.00 0.00 88
20260507124747 18 131 8.0 14.5 0.00 0.00 0.00 89
20260507124451 17 321 6.4 11.3 0.00 0.00 0.00 91
20260507124144 18 142 6.4 12.9 0.00 0.00 0.00 89
20260507123848 18 123 6.4 22.5 0.00 0.00 0.00 90
20260507123552 18 103 4.8 12.9 0.00 0.00 0.00 89
20260507123243 17 126 3.2 4.8 0.00 0.00 0.00 92
20260507122947 17 153 9.7 12.9 0.00 0.00 0.00 92
20260507122652 18 120 8.0 17.7 0.00 0.00 0.00 91
20260507122346 18 107 4.8 14.5 0.00 0.00 0.00 91
20260507122051 18 125 6.4 11.3 0.00 0.00 0.00 89
20260507121745 19 124 3.2 6.4 0.00 0.00 0.00 86
20260507121449 18 88 3.2 6.4 0.00 0.00 0.00 89
20260507121143 18 97 3.2 11.3 0.00 0.00 0.00 88
20260507120844 18 102 6.4 14.5 0.00 0.00 0.00 89
20260507120549 18 104 8.0 14.5 0.00 0.00 0.00 88
20260507120243 18 213 19.3 22.5 0.00 0.00 0.00 87
20260507120006 18 70 9.7 17.7 0.00 0.00 0.00 87
20260507115348 18 212 8.0 19.3 0.00 0.00 0.00 86
20260507115052 18 118 4.8 14.5 0.00 0.00 0.00 87
20260507114746 18 119 8.0 19.3 0.00 0.00 0.00 86
20260507114450 18 107 8.0 16.1 0.00 0.00 0.00 85
20260507114144 18 66 6.4 12.9 0.00 0.00 0.00 85
20260507113848 18 114 3.2 16.1 0.00 0.00 0.00 85
20260507113552 18 88 8.0 14.5 0.00 0.00 0.00 84
20260507113246 18 130 4.8 14.5 0.00 0.00 0.00 85
20260507112949 18 125 9.7 17.7 0.00 0.00 0.00 83
20260507112644 18 128 11.3 12.9 0.00 0.00 0.00 84
20260507112350 18 120 6.4 12.9 0.00 0.00 0.00 85
20260507112043 18 124 3.2 6.4 0.00 0.00 0.00 84
20260507111748 18 120 4.8 17.7 0.00 0.00 0.00 83
20260507111453 18 136 3.2 6.4 0.00 0.00 0.00 84
20260507111145 18 104 4.8 9.7 0.00 0.00 0.00 85
20260507110850 18 133 9.7 11.3 0.00 0.00 0.00 85
20260507110544 18 109 11.3 12.9 0.00 0.00 0.00 86
20260507110247 18 104 8.0 14.5 0.00 0.00 0.00 87
20260507110003 18 124 6.4 12.9 0.00 0.00 0.00 88
20260507105351 17 109 3.2 4.8 0.00 0.00 0.00 89
20260507105045 17 116 4.8 4.8 0.00 0.00 0.00 89
20260507104750 17 108 3.2 4.8 0.00 0.00 0.00 89
20260507104453 17 113 6.4 11.3 0.00 0.00 0.00 90
20260507104144 17 104 3.2 3.2 0.00 0.00 0.00 91
20260507103847 17 104 3.2 4.8 0.00 0.00 0.00 91
20260507103546 17 144 4.8 6.4 0.00 0.00 0.00 92
20260507103246 17 113 4.8 9.7 0.00 0.00 0.00 94
20260507102949 16 111 4.8 9.7 0.00 0.00 0.00 94
20260507102645 16 118 4.8 4.8 0.00 0.00 0.00 94
20260507102347 16 115 6.4 9.7 0.00 0.00 0.00 94
20260507102051 16 133 1.6 4.8 0.00 0.00 0.00 94
20260507101745 16 136 4.8 9.7 0.00 0.00 0.00 93
20260507101450 17 108 6.4 9.7 0.00 0.00 0.00 92
20260507101155 17 125 3.2 14.5 0.00 0.00 0.00 90
20260507100849 17 104 9.7 17.7 0.00 0.00 0.00 90
20260507100551 17 123 4.8 11.3 0.00 0.00 0.00 89
20260507100245 17 106 8.0 12.9 0.00 0.00 0.00 89
20260507100011 17 158 17.7 24.1 0.00 0.00 0.00 89
20260507095354 17 117 9.7 12.9 0.00 0.00 0.00 91
20260507095048 17 120 6.4 16.1 0.00 0.00 0.00 91
20260507094751 17 123 6.4 9.7 0.00 0.00 0.00 91
20260507094456 17 142 9.7 12.9 0.00 0.00 0.00 93
20260507094149 17 122 4.8 9.7 0.00 0.00 0.00 93
20260507093854 17 130 3.2 4.8 0.00 0.00 0.00 92
20260507093549 17 124 6.4 9.7 0.00 0.00 0.00 92
20260507093252 17 138 12.9 17.7 0.00 0.00 0.00 92
20260507092954 17 126 4.8 9.7 0.00 0.00 0.00 92
20260507092653 17 152 3.2 9.7 0.00 0.00 0.00 92
20260507092355 17 116 3.2 6.4 0.00 0.00 0.00 91
20260507092048 17 112 4.8 11.3 0.00 0.00 0.00 92
20260507091752 17 116 3.2 9.7 0.00 0.00 0.00 93
20260507091455 16 107 1.6 6.4 0.00 0.00 0.00 94
20260507091148 16 146 1.6 11.3 0.00 0.00 0.00 95
20260507090853 16 114 6.4 6.4 0.00 0.00 0.00 95
20260507090556 16 125 3.2 6.4 0.00 0.00 0.00 95
20260507090248 16 143 4.8 6.4 0.00 0.00 0.00 95
20260507090005 16 121 4.8 12.9 0.00 0.00 0.00 95
20260507085353 16 135 4.8 4.8 0.00 0.00 0.00 95
20260507085058 16 122 3.2 6.4 0.00 0.00 0.00 95
20260507084758 17 121 4.8 14.5 0.00 0.00 0.00 95
20260507084456 17 113 3.2 6.4 0.00 0.00 0.00 95
20260507084158 16 101 8.0 11.3 0.00 0.00 0.00 95
20260507083852 16 137 4.8 12.9 0.00 0.00 0.00 95
20260507083557 16 146 3.2 11.3 0.00 0.00 0.00 95
20260507083251 16 111 6.4 6.4 0.00 0.00 0.00 95
20260507082952 16 129 3.2 6.4 0.00 0.00 0.00 95
20260507082656 16 113 3.2 6.4 0.00 0.00 0.00 95
20260507082349 16 130 4.8 4.8 0.00 0.00 0.00 95
20260507082058 16 149 1.6 11.3 0.00 0.00 0.00 95
20260507081749 16 123 3.2 14.5 0.00 0.00 0.00 95
20260507081453 17 117 1.6 6.4 0.00 0.00 0.00 95
20260507081150 17 135 8.0 12.9 0.00 0.00 0.00 95
20260507080851 16 163 4.8 9.7 0.00 0.00 0.00 95
20260507080556 17 163 11.3 16.1 0.00 0.00 0.00 95
20260507080250 17 106 1.6 6.4 0.00 0.00 0.00 95
20260507080005 16 161 6.4 19.3 0.00 0.00 0.00 95
20260507075349 17 136 3.2 6.4 0.00 0.00 0.00 95
20260507075054 17 115 3.2 3.2 0.00 0.00 0.00 95
20260507074758 17 116 4.8 9.7 0.00 0.00 0.00 95
20260507074452 16 122 6.4 9.7 0.00 0.00 0.00 95
20260507074157 16 128 4.8 9.7 0.00 0.00 0.00 95
20260507073850 16 151 6.4 16.1 0.00 0.00 0.00 95
20260507073554 16 114 9.7 17.7 0.00 0.00 0.00 95
20260507073258 16 84 6.4 6.4 0.00 0.00 0.00 95
20260507072951 16 136 4.8 6.4 0.00 0.00 0.00 95
20260507072656 16 140 4.8 9.7 0.00 0.00 0.00 94
20260507072350 16 108 4.8 6.4 0.00 0.00 0.00 94
20260507072057 16 117 3.2 9.7 0.00 0.00 0.00 94
20260507071758 16 124 6.4 6.4 0.00 0.00 0.00 93
20260507071457 16 104 4.8 9.7 0.00 0.00 0.00 92
20260507071150 17 123 1.6 4.8 0.00 0.00 0.00 91
20260507070900 17 114 6.4 9.7 0.00 0.00 0.00 89
20260507070554 17 106 3.2 12.9 0.00 0.00 0.00 89
20260507070256 17 115 6.4 11.3 0.00 0.00 0.00 89
20260507070001 17 121 4.8 6.4 0.00 0.00 0.00 88
20260507065354 17 130 6.4 9.7 0.00 0.00 0.00 85
20260507065054 17 128 6.4 9.7 0.00 0.00 0.00 85
20260507064759 17 124 6.4 9.7 0.00 0.00 0.00 85
20260507064451 17 111 8.0 11.3 0.00 0.00 0.00 85
20260507064200 17 131 4.8 9.7 0.00 0.00 0.00 85
20260507063853 17 113 4.8 14.5 0.00 0.00 0.00 85
20260507063559 17 135 3.2 12.9 0.00 0.00 0.00 85
20260507063254 17 126 3.2 11.3 0.00 0.00 0.00 85
20260507062959 17 126 4.8 6.4 0.00 0.00 0.00 84
20260507062652 17 141 6.4 9.7 0.00 0.00 0.00 85
20260507062356 17 128 3.2 4.8 0.00 0.00 0.00 85
20260507062100 17 154 6.4 16.1 0.00 0.00 0.00 85
20260507061801 17 104 6.4 9.7 0.00 0.00 0.00 87
20260507061452 17 101 4.8 6.4 0.00 0.00 0.00 89
20260507061156 17 117 4.8 6.4 0.00 0.00 0.00 89
20260507060900 17 124 4.8 6.4 0.00 0.00 0.00 88
20260507060555 17 144 3.2 4.8 0.00 0.00 0.00 87
20260507060253 17 142 3.2 9.7 0.00 0.00 0.00 86
20260507060004 17 210 1.6 6.4 0.00 0.00 0.00 85
20260507055358 17 111 4.8 4.8 0.00 0.00 0.00 84
20260507055052 17 138 3.2 9.7 0.00 0.00 0.00 82
20260507054754 17 135 3.2 11.3 0.00 0.00 0.00 83
20260507054500 17 118 4.8 9.7 0.00 0.00 0.00 83
20260507054153 17 122 6.4 6.4 0.00 0.00 0.00 83
20260507053857 17 106 4.8 4.8 0.00 0.00 0.00 83
20260507053603 17 128 6.4 12.9 0.00 0.00 0.00 82
20260507053257 17 155 6.4 6.4 0.00 0.00 0.00 83
20260507053001 17 137 4.8 6.4 0.00 0.00 0.00 83
20260507052654 17 115 4.8 6.4 0.00 0.00 0.00 81
20260507052358 17 127 4.8 9.7 0.00 0.00 0.00 80
20260507052059 17 128 3.2 6.4 0.00 0.00 0.00 80
20260507051759 17 124 3.2 6.4 0.00 0.00 0.00 81
20260507051459 17 116 4.8 6.4 0.00 0.00 0.00 81
20260507051154 17 129 3.2 11.3 0.00 0.00 0.00 81
20260507050859 17 139 3.2 11.3 0.00 0.00 0.00 81
20260507050603 17 131 4.8 9.7 0.00 0.00 0.00 81
20260507050257 17 111 4.8 9.7 0.00 0.00 0.00 81
20260507050002 17 152 4.8 6.4 0.00 0.00 0.00 81
20260507045403 17 103 6.4 6.4 0.00 0.00 0.00 82
20260507045056 17 136 3.2 4.8 0.00 0.00 0.00 83
20260507044757 17 121 1.6 1.6 0.00 0.00 0.00 82
20260507044502 17 118 3.2 3.2 0.00 0.00 0.00 81
20260507044156 17 120 1.6 3.2 0.00 0.00 0.00 81
20260507043901 17 117 3.2 3.2 0.00 0.00 0.00 81
20260507043604 17 120 1.6 1.6 0.00 0.00 0.00 82
20260507043257 17 118 1.6 3.2 0.00 0.00 0.00 82
20260507043004 17 124 1.6 3.2 0.00 0.00 0.00 82
20260507042702 17 124 1.6 3.2 0.00 0.00 0.00 82
20260507042357 17 113 1.6 3.2 0.00 0.00 0.00 83
20260507042100 17 110 1.6 3.2 0.00 0.00 0.00 84
20260507041759 17 107 1.6 1.6 0.00 0.00 0.00 85
20260507041502 17 106 0.0 1.6 0.00 0.00 0.00 86
20260507041154 17 108 1.6 3.2 0.00 0.00 0.00 86
20260507040858 17 107 1.6 1.6 0.00 0.00 0.00 86
20260507040602 17 107 0.0 1.6 0.00 0.00 0.00 87
20260507040255 17 107 1.6 1.6 0.00 0.00 0.00 86
20260507040010 17 113 0.0 1.6 0.00 0.00 0.00 86
20260507035356 17 115 1.6 1.6 0.00 0.00 0.00 86
20260507035101 17 116 1.6 1.6 0.00 0.00 0.00 86
20260507034756 17 117 1.6 1.6 0.00 0.00 0.00 86
20260507034501 17 117 0.0 1.6 0.00 0.00 0.00 86
20260507034155 17 118 1.6 3.2 0.00 0.00 0.00 87
20260507033857 17 131 1.6 1.6 0.00 0.00 0.00 87
20260507033601 17 132 0.0 1.6 0.00 0.00 0.00 86
20260507033303 17 131 1.6 1.6 0.00 0.00 0.00 85
20260507032956 17 133 0.0 1.6 0.00 0.00 0.00 84
20260507032700 17 132 3.2 1.6 0.00 0.00 0.00 83
20260507032354 17 149 1.6 1.6 0.00 0.00 0.00 82
20260507032058 17 149 1.6 1.6 0.00 0.00 0.00 82
20260507031802 17 178 1.6 3.2 0.00 0.00 0.00 83
20260507031456 17 188 1.6 1.6 0.00 0.00 0.00 84
20260507031202 17 188 1.6 3.2 0.00 0.00 0.00 83
20260507030856 17 230 1.6 1.6 0.00 0.00 0.00 84
20260507030559 17 231 1.6 1.6 0.00 0.00 0.00 85
20260507030304 17 231 0.0 1.6 0.00 0.00 0.00 84
20260507030008 17 231 0.0 1.6 0.00 0.00 0.00 84
20260507025357 17 231 0.0 0.0 0.00 0.00 0.00 84
20260507025100 17 231 0.0 1.6 0.00 0.00 0.00 85
20260507024803 17 231 0.0 1.6 0.00 0.00 0.00 85
20260507024458 17 231 0.0 0.0 0.00 0.00 0.00 85
20260507024202 17 231 1.6 1.6 0.00 0.00 0.00 86
20260507023856 17 231 0.0 0.0 0.00 0.00 0.00 86
20260507023602 17 231 0.0 0.0 0.00 0.00 0.00 86
20260507023256 17 231 0.0 0.0 0.00 0.00 0.00 86
20260507023000 17 231 0.0 1.6 0.00 0.00 0.00 86
20260507022705 17 230 0.0 0.0 0.00 0.00 0.00 86
20260507022359 17 231 0.0 0.0 0.00 0.00 0.00 86
20260507022103 17 231 3.2 3.2 0.00 0.00 0.00 86
20260507021757 17 231 1.6 1.6 0.00 0.00 0.00 85
20260507021502 17 232 0.0 1.6 0.00 0.00 0.00 84
20260507021156 17 232 0.0 1.6 0.00 0.00 0.00 83
20260507020902 17 232 0.0 1.6 0.00 0.00 0.00 83
20260507020605 17 232 0.0 0.0 0.00 0.00 0.00 83
20260507020259 17 232 0.0 1.6 0.00 0.00 0.00 82
20260507020003 17 232 0.0 0.0 0.00 0.00 0.00 82
20260507015402 17 232 0.0 1.6 0.00 0.00 0.00 83
20260507015104 17 232 0.0 1.6 0.00 0.00 0.00 83
20260507014758 17 232 0.0 0.0 0.00 0.00 0.00 82
20260507014503 17 232 0.0 0.0 0.00 0.00 0.00 81
20260507014157 17 232 1.6 1.6 0.00 0.00 0.00 81
20260507013900 17 232 1.6 1.6 0.00 0.00 0.00 80
20260507013601 17 232 1.6 1.6 0.00 0.00 0.00 79
20260507013307 17 232 0.0 0.0 0.00 0.00 0.00 78
20260507013000 17 232 0.0 1.6 0.00 0.00 0.00 78
20260507012703 17 232 0.0 0.0 0.00 0.00 0.00 78
20260507012407 17 232 0.0 1.6 0.00 0.00 0.00 80
20260507012101 17 232 1.6 1.6 0.00 0.00 0.00 81
20260507011807 17 232 1.6 3.2 0.00 0.00 0.00 79
20260507011459 17 232 0.0 0.0 0.00 0.00 0.00 77
20260507011202 18 232 0.0 0.0 0.00 0.00 0.00 77
20260507010906 18 227 1.6 1.6 0.00 0.00 0.00 77
20260507010559 18 225 0.0 0.0 0.00 0.00 0.00 76
20260507010303 18 225 1.6 1.6 0.00 0.00 0.00 75
20260507010005 18 225 1.6 1.6 0.00 0.00 0.00 75